PYXIS-R GRUS-3A

基本信息
目录编号:
64579
目录名称:
GRUS-3ALPHA
国际标识:
2025-135BD
轨道中心:
EARTH
卫星名称:
PYXIS-R GRUS-3A
卫星全名:
PYXIS-R GRUS-3A
卫星状态:
在轨 (已飞行175 天)
发射日期:
2025-06-23 UTC
国别 :
日本 (JP)
星等 :
--
轨道信息
数据来源 国际轨道数据
星历时间: 2025-12-15T07:07:02+0800
19小时前
查看轨道信息
半长轴: 6968.403km
偏心率: 0.0001836
轨道倾角: 97.762°
近地点辐角 229.807°
升交点赤经 100.631°
平近点角 130.299°
近地点: 588.988km
远地点: 591.548km
周期: 96.485分钟
每日圈数: 14.924607
详细信息
使用方式:
暂无
2D轨道图
3D轨道图
轨道高度分析图
轨道倾角分析图
轨道综合分析图
查看轨道综合分析图